CW9443 Weather Reports


Display with metric or nautical units.
time (UTC)temp
F
wind
direction
speed
MPH
gust
MPH
rain 1hr
in
rain 24hr
in
rain mn
in
humidity
%
barometer
mb
20260503023010 60 221 0.0 0.0 0.00 0.00 0.00 82 1009.3
20260503021510 61 242 0.0 0.0 0.00 0.00 0.00 80 1009.2
20260503020009 62 244 0.0 0.0 0.00 0.00 0.00 78 1009.0
20260503013013 65 219 0.0 0.0 0.00 0.00 0.00 73 1009.1
20260503011508 67 223 0.0 0.0 0.00 0.00 0.00 69 1009.1
20260503010010 68 222 0.0 0.0 0.00 0.00 0.00 68 1009.1
20260503003003 69 226 0.0 0.0 0.00 0.00 0.00 66 1009.2
20260503001501 70 241 0.0 0.0 0.00 0.00 0.00 65 1009.2
20260503000106 70 244 0.0 0.0 0.00 0.00 0.00 65 1009.2
20260502233021 70 241 0.0 0.0 0.00 0.00 0.00 66 1009.6
20260502231505 70 238 0.0 0.0 0.00 0.00 0.00 65 1009.8
20260502230003 70 239 0.0 0.0 0.00 0.00 0.00 65 1010.0
20260502223024 70 238 0.0 0.0 0.00 0.00 0.00 65 1010.5
20260502221516 69 205 1.0 0.0 0.00 0.00 0.00 67 1010.9
20260502220020 71 219 1.0 0.0 0.00 0.00 0.00 66 1011.0
20260502213059 71 265 0.0 0.0 0.00 0.00 0.00 64 1011.4
20260502211558 71 218 1.0 0.0 0.00 0.00 0.00 65 1011.5
20260502210017 71 237 2.0 0.0 0.00 0.00 0.00 65 1011.6
20260502204515 72 275 1.0 0.0 0.00 0.00 0.00 64 1011.7
20260502203013 72 244 2.0 0.0 0.00 0.00 0.00 64 1011.7
20260502200023 71 229 2.0 0.0 0.00 0.00 0.00 66 1011.9
20260502194530 71 236 1.0 0.0 0.00 0.00 0.00 65 1012.2
20260502193021 71 240 1.0 0.0 0.00 0.00 0.00 66 1012.2
20260502190012 70 303 0.0 0.0 0.00 0.00 0.00 67 1012.7
20260502184511 68 329 0.0 0.0 0.00 0.00 0.00 72 1012.8
20260502183007 68 340 0.0 0.0 0.00 0.00 0.00 71 1012.8
20260502151631 56 15 0.0 0.0 0.00 0.00 0.00 95 1013.0
20260502150108 54 15 0.0 0.0 0.00 0.00 0.00 95 1012.7
20260502123005 54 252 0.0 0.0 0.00 0.00 0.00 94 1012.4
20260502121601 53 252 0.0 0.0 0.00 0.00 0.00 94 1012.1
20260502114559 53 252 0.0 0.0 0.00 0.00 0.00 94 1012.1
20260502113053 53 252 0.0 0.0 0.00 0.00 0.00 94 1012.0
20260502111558 53 252 0.0 0.0 0.00 0.00 0.00 94 1011.9
20260502104543 54 252 0.0 0.0 0.00 0.00 0.00 93 1011.6
20260502103043 54 252 0.0 0.0 0.00 0.00 0.00 93 1011.6
20260502101556 54 252 0.0 0.0 0.00 0.00 0.00 93 1011.5
20260502091506 54 252 0.0 0.0 0.00 0.00 0.00 91 1011.6
20260502070021 55 252 0.0 0.0 0.00 0.00 0.00 91 1012.0
20260502063050 55 252 0.0 0.0 0.00 0.00 0.00 91 1012.0
20260502031548 58 252 0.0 0.0 0.00 0.00 0.00 84 1011.3
20260502030045 59 252 0.0 0.0 0.00 0.00 0.00 82 1011.2